GFSCGP_700_rhum_159.txt.gz
RH
48 47 39 32 30 29 25 24 24 22 22 24 25 24 25 32 28 20 20 21 22 22 21 23 22 22 23 24 27 29 30 34 44 42 39 30 23 17 16 15 14 13 12 12
46 39 38 46 47 44 40 34 31 30 29 32 30 26 29 36 30 23 22 20 21 21 23 22 23 25 28 31 33 33 33 42 46 41 33 26 20 18 17 17 16 16 15 14
38 36 48 51 50 51 46 42 39 35 30 33 33 31 30 33 41 36 31 24 22 21 22 22 25 28 33 35 35 35 39 50 45 37 29 21 18 20 20 19 18 16 14 11
46 45 46 52 51 46 42 39 40 44 40 35 31 27 26 25 42 47 30 30 28 26 26 27 30 34 39 41 40 42 53 49 41 32 22 21 24 23 20 17 14 12 10 9
40 52 47 46 38 39 39 44 43 39 37 35 30 31 28 28 40 55 38 32 30 30 31 32 38 42 45 45 45 55 52 44 35 28 26 27 24 20 17 15 13 11 9 8
50 44 49 54 46 47 50 51 48 45 43 44 35 31 28 24 30 42 59 46 42 34 32 37 44 48 47 48 59 54 48 38 33 31 29 25 21 18 15 13 10 9 9 8
40 43 43 53 49 49 53 50 40 34 40 38 29 29 30 37 33 38 50 50 37 35 38 46 50 51 52 59 55 50 43 38 36 33 27 22 19 15 11 10 10 10 10 10
24 23 32 38 41 36 35 39 36 37 28 23 22 27 25 33 36 37 51 47 36 36 39 49 59 60 61 58 53 48 43 42 36 29 24 19 14 12 11 11 11 12 14 14
25 26 29 39 34 34 30 30 29 33 31 32 28 24 34 36 37 36 38 34 37 41 49 59 64 64 61 56 52 47 45 41 32 25 18 15 15 14 12 12 12 12 14 16
32 36 34 31 34 35 35 29 30 32 45 40 26 23 23 50 70 47 44 40 38 47 58 66 67 64 59 53 50 48 41 31 24 18 17 15 14 14 13 13 13 13 14 15
33 34 31 29 28 28 27 26 33 31 31 39 46 37 55 53 76 49 41 50 52 61 66 67 66 55 52 51 51 41 32 22 20 20 18 16 16 15 16 16 15 14 13 14
34 39 39 33 30 31 32 31 32 35 40 40 49 60 68 67 55 51 50 50 51 57 63 60 50 50 56 57 43 33 26 24 22 20 19 18 18 18 18 15 12 10 9 10
41 35 40 36 32 29 30 32 32 29 31 40 60 66 70 63 62 73 61 59 59 57 65 80 58 61 60 48 35 28 28 25 22 22 21 20 20 17 10 4 3 3 4 6
53 42 38 39 32 29 35 48 47 42 56 61 62 62 59 68 71 79 66 68 75 76 80 88 66 66 54 40 32 30 28 25 23 23 22 20 11 4 3 3 3 3 4 14
74 61 50 43 37 32 33 32 31 31 36 41 46 54 64 83 78 83 93 97 95 94 91 91 73 63 45 36 34 30 27 25 25 24 15 4 3 3 3 3 2 3 8 33
81 76 67 58 52 44 39 36 32 34 36 36 46 48 55 65 96 77 83 95 98 96 89 81 73 53 40 38 33 28 27 27 20 7 4 4 4 4 3 3 2 3 11 33
71 80 88 82 59 47 53 59 49 42 45 48 60 56 61 95 99 92 89 96 96 88 81 82 63 46 40 35 30 29 27 13 4 4 4 4 4 4 4 4 3 3 4 10
92 89 76 75 61 68 52 59 58 62 70 63 44 56 68 98 98 91 88 96 88 80 81 71 54 41 37 31 32 26 9 4 4 5 5 5 6 6 6 6 6 5 4 5
100 93 80 83 58 45 40 42 60 74 66 65 68 66 79 94 92 94 96 75 68 74 77 62 42 39 33 34 26 7 4 5 6 6 7 8 8 9 9 9 10 10 10 10
90 96 70 66 66 56 37 67 58 53 64 77 66 71 94 91 88 84 92 66 62 68 67 44 39 34 34 27 8 4 5 6 8 9 10 11 12 13 13 14 15 16 16 17
69 68 88 80 81 63 50 63 90 67 62 72 58 82 55 70 90 88 83 71 70 69 45 40 34 35 32 8 4 6 7 9 10 12 14 15 16 17 18 19 20 21 21 22
72 79 84 85 84 78 70 80 75 77 61 62 62 58 63 56 76 83 80 76 69 43 39 35 35 33 7 5 6 8 10 12 14 14 13 13 14 15 17 18 19 20 20 20
70 68 69 88 73 88 81 81 62 65 62 66 64 48 59 78 84 82 80 58 39 37 34 34 34 8 5 6 8 10 12 14 11 10 11 14 16 17 18 18 17 17 16 16
85 75 80 80 81 82 90 85 68 67 54 64 63 56 49 54 71 63 44 37 35 33 33 35 13 5 6 8 10 12 12 9 10 13 15 18 20 20 19 18 16 15 14 14
84 89 95 92 87 85 71 67 66 57 67 67 68 63 49 46 41 38 37 33 31 32 36 22 5 6 8 9 12 12 8 10 14 19 22 23 22 21 19 18 17 15 14 13
88 92 95 92 72 92 89 83 71 65 66 68 71 66 59 48 43 36 31 29 33 35 29 6 6 7 9 11 12 9 10 15 21 24 24 23 21 20 18 18 17 16 14 13

GFSCGP_700_rhum_162.txt.gz
RH
39 41 36 34 32 30 28 26 24 20 21 22 23 23 23 30 37 29 27 27 22 19 18 18 19 19 20 21 22 24 25 29 30 28 32 39 40 32 24 14 9 9 11 12
36 38 38 32 38 42 36 36 36 31 28 26 26 28 27 25 28 31 28 29 26 22 20 19 19 20 21 22 24 27 30 32 32 36 44 42 36 28 19 12 13 14 15 14
32 29 38 41 44 42 42 40 38 37 35 34 32 29 30 28 26 35 34 33 35 30 26 24 21 21 22 26 31 34 37 37 36 47 47 41 32 22 17 18 19 18 15 13
34 34 34 38 41 46 47 42 34 34 37 37 35 33 30 26 25 36 36 35 44 61 50 34 28 26 28 34 39 41 40 39 47 51 44 35 27 24 24 22 19 16 14 12
37 37 42 46 42 38 32 36 39 46 44 40 34 32 29 26 25 30 34 46 54 62 46 39 37 33 37 43 46 46 46 49 54 47 39 32 27 27 24 20 17 14 11 9
39 43 39 40 47 46 41 45 45 42 41 44 36 33 32 30 29 32 40 54 48 54 42 37 32 40 42 47 51 54 57 56 50 43 37 33 32 26 20 17 13 10 10 9
36 37 38 40 40 44 42 46 44 39 37 42 28 25 25 25 32 35 43 48 54 45 36 33 36 35 45 56 58 60 56 52 48 42 38 34 26 21 16 12 11 10 9 9
28 25 24 29 40 45 35 34 39 44 41 33 24 23 21 27 27 34 49 54 46 53 49 43 38 41 50 60 63 58 55 51 45 43 38 31 22 16 13 12 11 11 11 10
25 21 24 32 36 30 28 29 26 26 27 31 28 24 22 28 41 50 52 61 52 49 52 43 46 50 59 65 61 58 54 48 46 40 29 21 16 14 13 14 13 14 14 12
30 29 27 28 33 35 33 31 31 28 43 42 29 25 31 62 61 62 60 53 55 54 52 42 53 64 66 64 61 54 51 49 40 29 21 18 16 15 16 16 16 16 13 10
31 32 32 31 30 28 25 24 26 27 29 41 44 37 42 64 72 63 55 43 48 67 55 61 64 69 67 63 56 55 54 42 31 23 20 19 18 18 18 18 15 9 4 3
26 34 34 27 26 28 27 26 27 29 32 32 40 50 50 61 62 90 61 57 56 52 52 61 63 61 55 54 58 59 46 33 26 24 21 20 20 20 18 11 4 3 3 3
42 36 33 32 30 31 31 30 29 28 30 35 49 42 48 59 59 70 64 56 58 61 57 56 61 78 68 59 63 51 36 29 26 23 22 22 21 15 5 3 3 3 3 3
46 51 48 47 37 32 30 30 29 31 53 64 54 48 36 38 45 64 66 61 65 67 65 68 73 91 78 70 59 40 32 28 25 24 24 21 8 4 4 4 4 3 2 3
54 54 50 52 48 44 43 40 36 30 30 30 29 29 29 37 50 63 65 76 68 75 89 89 95 96 82 68 46 34 30 27 26 25 16 5 4 4 4 4 4 3 2 2
81 83 73 67 60 54 51 47 43 37 30 27 25 28 31 50 62 82 84 87 89 85 99 97 97 88 77 55 37 32 28 28 25 12 4 4 5 5 5 5 5 5 4 3
79 70 73 74 62 60 71 59 54 47 44 44 40 42 57 63 63 82 97 98 98 90 97 97 89 82 66 42 36 30 28 25 8 4 5 6 6 6 7 7 7 7 7 7
85 83 79 82 79 85 55 48 50 51 54 52 59 60 53 45 63 80 78 92 95 94 80 87 81 75 48 38 32 30 25 6 5 6 7 8 8 8 9 9 10 10 10 11
92 96 96 94 83 64 56 47 41 56 60 68 60 60 65 72 86 99 88 95 76 73 80 80 77 56 38 33 31 26 6 5 6 8 8 9 10 11 12 14 15 16 17 18
89 98 98 89 80 56 45 59 69 74 69 71 75 70 83 72 80 85 96 88 63 60 65 70 60 40 35 32 28 6 5 7 8 9 11 13 14 16 16 17 18 19 19 20
88 94 93 92 86 59 50 52 84 83 69 68 66 64 89 86 70 81 95 84 74 68 66 60 41 37 32 31 7 5 7 8 10 12 14 14 15 16 17 18 18 19 20 20
79 93 84 79 75 78 60 64 95 83 74 64 60 61 61 57 62 68 86 86 73 73 62 40 38 33 33 10 5 7 8 11 13 13 13 13 14 15 15 16 16 17 17 17
89 64 62 66 72 74 84 78 96 65 60 60 63 64 64 63 80 83 85 80 73 57 39 37 32 35 18 5 6 8 10 13 11 9 10 12 14 15 15 15 15 14 13 13
78 78 83 96 77 79 87 97 78 73 68 56 50 59 59 51 58 68 70 53 39 37 36 32 35 29 6 6 8 10 12 10 8 9 12 15 18 19 18 18 16 15 14 12
95 95 93 79 64 87 96 97 87 64 64 56 62 54 63 55 47 43 36 35 36 34 32 35 33 8 6 7 9 12 11 8 8 12 18 21 21 20 18 18 17 16 15 14
62 72 75 79 84 87 79 90 82 73 67 67 60 59 62 60 52 44 40 32 32 31 33 32 20 6 6 8 10 12 8 8 11 18 23 22 20 19 19 18 17 16 15 14

GFSCGP_700_rhum_165.txt.gz
RH
13 40 31 34 38 38 38 32 29 25 29 30 23 22 22 23 23 23 24 24 23 25 26 25 22 18 18 19 19 20 21 21 22 24 28 30 30 31 38 36 28 18 11 11
25 35 23 35 34 37 41 41 37 33 28 34 35 35 31 26 26 26 28 29 27 28 29 28 26 23 20 19 20 21 23 25 26 28 33 33 39 44 40 32 24 15 12 15
32 25 31 34 39 38 42 43 42 42 40 38 37 36 36 33 32 30 32 36 33 30 30 32 28 25 25 23 22 23 23 30 34 37 38 45 48 42 34 27 21 20 19 19
32 32 27 34 37 35 41 44 47 38 36 41 40 42 36 35 34 31 31 38 39 38 42 40 32 28 28 30 27 26 30 38 42 44 47 52 44 37 32 27 26 24 20 16
33 36 38 39 41 44 42 41 36 38 42 43 43 36 28 21 18 24 32 38 46 51 49 40 33 33 32 33 38 38 40 46 48 52 54 48 41 36 32 30 26 20 16 12
42 40 39 36 38 44 46 43 43 40 36 53 39 40 35 28 31 33 33 40 49 53 51 47 40 37 35 37 42 45 45 52 54 56 50 45 40 37 32 25 20 15 12 10
27 30 24 29 35 41 42 43 51 56 56 60 32 35 34 30 27 28 37 46 51 55 58 54 47 48 39 41 46 54 52 59 57 54 49 43 41 36 28 20 14 12 12 12
30 28 25 32 36 39 42 42 46 61 57 47 28 29 26 27 29 33 36 50 53 53 57 57 50 48 55 48 57 58 60 59 56 50 44 43 35 25 18 15 13 13 13 12
27 25 29 29 36 41 41 26 31 31 29 41 31 27 26 39 43 44 49 55 55 58 59 64 65 66 53 54 61 64 62 59 52 47 44 34 26 19 16 16 16 15 14 11
30 31 25 28 32 33 33 27 30 28 52 51 37 32 30 54 51 58 64 60 56 54 55 46 56 80 66 63 68 65 62 56 52 47 36 26 22 18 17 18 16 13 11 6
28 29 30 24 32 33 30 29 33 31 31 50 47 43 50 50 47 53 56 58 59 52 50 48 51 59 65 68 68 62 60 60 50 37 29 24 21 20 18 18 14 8 4 3
30 34 31 26 20 23 24 29 31 32 35 30 38 40 36 48 57 56 46 46 48 46 52 55 56 57 62 66 65 65 65 55 40 31 26 22 21 20 18 12 4 4 4 4
28 35 38 34 26 19 27 27 32 32 32 34 57 43 47 51 42 36 34 41 50 56 62 66 66 68 71 73 76 84 76 60 52 27 24 23 22 18 8 4 4 4 4 4
42 39 43 50 38 44 36 27 28 39 38 37 33 34 31 32 32 30 40 44 54 63 70 73 76 76 77 93 95 77 60 41 30 26 24 23 16 5 4 5 5 5 5 4
37 41 39 30 34 47 46 40 33 44 48 49 40 35 30 26 26 33 42 48 58 70 85 95 92 88 87 96 86 68 44 33 28 26 24 12 4 5 6 6 6 6 6 6
47 52 63 68 71 68 67 62 60 55 51 47 47 44 42 41 41 51 50 59 66 86 94 98 97 100 97 95 74 54 36 31 28 25 9 4 6 6 7 7 7 7 7 8
76 80 82 78 73 76 71 63 51 49 54 55 51 45 49 47 43 43 52 55 58 88 96 98 100 98 92 82 56 38 33 29 25 8 5 6 7 8 9 9 9 10 11 13
57 65 76 81 81 89 57 57 51 55 53 50 56 54 60 58 58 65 68 70 81 96 96 95 91 92 82 59 39 36 30 27 8 5 7 8 9 10 10 12 14 16 18 19
23 71 91 91 84 65 59 45 42 52 64 62 70 63 57 71 67 73 68 86 95 88 94 92 94 79 61 41 36 31 28 8 5 7 8 10 12 13 15 17 19 20 21 22
73 77 90 99 96 90 47 54 56 55 50 58 70 75 70 61 63 58 63 93 89 75 66 68 69 59 45 37 33 30 9 5 7 9 12 13 14 16 18 19 20 20 22 24
85 92 96 98 96 79 63 50 54 68 74 67 63 63 56 60 64 63 68 72 67 70 61 59 58 49 39 33 31 14 5 8 9 12 14 15 16 17 18 18 18 19 19 20
89 96 95 98 98 86 60 62 72 78 73 80 57 61 54 58 52 64 70 78 75 69 70 66 51 39 34 30 20 5 7 9 12 13 14 14 14 15 15 14 14 13 12 12
91 82 83 74 59 54 62 73 79 74 99 72 62 55 58 59 52 71 75 80 75 76 70 50 39 34 31 27 6 6 8 12 13 10 11 12 13 14 15 15 15 15 14 13
81 85 95 83 70 72 85 97 75 76 92 70 62 54 53 52 46 42 48 53 53 51 39 38 34 31 31 8 5 8 10 12 9 9 10 13 16 18 18 18 17 17 16 15
85 96 96 89 82 95 88 86 87 77 69 78 65 55 48 50 54 48 43 38 35 35 33 32 30 33 16 5 6 8 12 11 8 9 12 18 20 20 19 18 18 17 16 15
64 75 89 91 79 89 77 88 85 92 72 61 63 64 55 56 56 54 49 45 35 29 29 30 32 29 7 6 8 9 12 9 8 10 17 21 21 20 21 20 18 17 15 15

GFSCGP_700_rhum_168.txt.gz
RH
12 14 10 18 34 40 37 36 40 32 31 32 35 26 24 24 24 23 23 26 27 26 27 27 26 27 29 24 20 21 23 23 26 29 29 27 26 28 30 29 34 40 33 24
16 15 12 22 33 41 42 44 42 42 41 41 38 35 36 37 37 35 27 31 31 30 30 29 29 30 30 27 24 23 26 27 30 34 33 33 31 32 32 36 43 41 31 21
21 16 24 32 33 35 42 41 44 46 44 43 42 38 34 32 34 34 30 32 34 34 34 35 34 35 35 33 31 34 33 31 31 33 35 36 36 37 40 47 44 38 26 24
40 28 20 25 33 35 41 38 42 44 46 42 42 45 32 23 20 31 31 27 32 37 40 40 38 36 38 40 43 41 39 38 36 38 42 44 44 46 49 45 36 30 27 25
32 33 36 35 34 39 42 42 40 42 41 40 41 39 27 26 18 23 29 33 34 41 46 46 43 41 43 50 49 43 45 45 47 48 50 52 53 51 45 39 34 30 25 19
48 37 35 36 37 40 44 43 40 40 40 52 37 37 35 29 36 33 27 26 37 44 49 50 47 45 48 56 54 51 47 47 51 55 57 56 52 47 40 37 34 26 20 13
33 32 29 33 35 39 43 46 48 52 60 56 36 32 34 35 38 25 24 28 28 39 48 49 50 54 64 74 61 52 46 46 51 58 57 54 48 42 40 31 22 17 14 13
39 30 29 27 30 29 36 40 46 67 65 51 35 30 28 26 23 30 40 41 45 44 47 51 61 72 57 52 55 57 52 57 60 60 57 49 44 37 28 21 17 15 15 15
32 29 24 27 29 35 42 44 37 42 41 44 32 29 34 37 43 44 47 52 53 53 56 65 55 44 45 48 63 70 60 64 63 59 49 48 40 32 24 19 17 18 16 14
27 32 28 30 33 36 42 38 32 33 46 51 39 32 29 42 45 49 50 50 52 52 57 45 44 49 51 61 78 65 66 65 60 55 53 42 32 24 20 20 19 17 13 7
26 28 28 28 26 34 34 34 32 34 32 57 56 41 31 45 48 48 50 56 51 38 37 42 53 54 54 55 64 69 68 60 58 58 42 32 26 23 22 21 17 10 4 4
28 28 32 27 25 26 27 30 34 35 36 36 42 40 32 33 48 52 52 40 38 35 41 48 58 62 62 64 68 71 68 65 59 61 80 32 25 24 22 14 5 4 5 5
23 32 35 29 20 20 20 30 36 39 34 36 54 40 36 50 50 32 35 36 32 34 49 55 62 72 68 71 75 75 75 87 90 80 35 27 25 22 10 4 5 5 6 5
28 30 27 33 31 37 34 30 30 37 53 47 43 40 36 36 33 36 32 28 30 38 53 56 68 82 87 91 82 81 94 95 73 37 30 26 22 8 4 6 6 6 6 6
38 40 37 38 40 37 32 28 21 35 50 63 30 38 32 33 45 46 45 46 46 50 54 59 79 97 99 96 94 97 92 74 58 32 28 23 7 5 6 7 7 7 8 8
38 39 40 42 44 51 55 66 65 50 41 55 50 40 46 50 52 50 48 46 45 46 55 68 95 100 100 100 97 96 91 65 36 29 24 8 5 7 8 8 9 9 10 12
48 51 55 67 74 79 74 47 32 23 41 53 58 49 54 56 51 55 60 60 62 66 70 84 100 100 100 97 94 92 58 41 31 26 8 5 7 8 9 10 11 13 16 19
64 73 80 87 93 87 52 49 40 68 64 53 59 55 60 56 54 56 55 53 64 71 83 87 95 98 92 86 87 59 42 32 27 9 5 7 9 10 12 14 16 19 22 24
36 45 70 78 72 56 53 49 55 50 56 57 57 58 66 56 53 48 49 62 55 68 89 96 94 84 82 78 59 44 34 29 9 5 8 9 12 14 17 19 21 23 25 26
58 38 63 82 95 92 50 51 58 54 57 53 65 74 67 64 54 53 67 60 67 85 67 78 80 81 75 64 44 34 30 15 5 8 10 13 15 17 19 20 22 23 23 22
83 91 85 82 91 78 52 55 60 69 46 54 63 64 54 52 51 55 57 64 65 70 63 58 60 74 65 42 34 30 23 5 7 9 13 15 17 18 19 19 18 15 12 11
68 83 96 100 97 90 57 59 74 69 79 79 61 59 53 58 51 58 55 62 74 74 71 65 66 63 42 35 30 29 8 6 9 13 14 16 16 16 16 13 12 12 13 13
92 88 86 84 73 67 60 69 82 77 75 72 57 59 69 56 51 48 64 72 78 76 75 72 62 41 36 29 29 15 5 8 12 13 13 13 14 13 14 16 16 16 16 16
98 97 99 100 86 84 85 85 87 82 80 90 77 63 61 55 50 49 44 37 42 49 57 57 41 37 30 29 23 5 7 9 12 11 10 11 12 16 18 18 17 17 16 16
86 91 77 84 84 84 68 79 77 82 80 84 71 64 68 61 56 54 49 44 40 34 39 41 37 31 30 29 7 6 8 11 12 8 9 11 16 19 18 18 19 18 17 16
44 51 71 72 79 92 69 72 73 67 80 89 76 66 61 67 65 58 54 48 47 38 36 35 30 29 31 17 5 7 8 12 11 8 10 15 20 19 19 21 22 21 20 18

GFSCGP_700_rhum_171.txt.gz
RH
12 13 11 11 22 31 42 44 41 36 38 38 34 32 26 27 27 27 24 25 25 25 28 30 30 30 30 30 31 32 29 29 29 28 27 29 31 32 32 32 34 35 37 40
20 16 13 12 18 31 40 42 42 45 44 43 42 40 36 36 32 28 30 35 35 28 29 32 33 33 34 35 36 39 41 40 37 34 33 34 36 37 37 37 39 41 44 44
18 18 16 20 16 31 36 37 38 46 44 43 43 40 36 34 36 36 33 34 36 36 34 35 36 39 39 40 44 49 50 44 40 40 40 40 40 42 43 45 45 48 46 39
27 25 18 19 24 30 34 36 44 43 42 42 41 46 40 37 33 28 30 29 31 31 30 32 36 40 42 44 48 61 60 54 49 41 42 44 43 44 47 50 51 46 39 33
29 33 34 32 30 31 38 42 42 43 42 42 42 40 35 30 32 24 30 31 26 30 36 40 43 46 46 50 62 71 74 62 50 41 45 50 52 54 54 53 49 42 36 32
28 29 34 37 38 40 42 45 45 42 43 53 37 38 36 27 32 33 33 28 23 23 27 42 47 49 53 61 70 60 56 53 48 46 46 53 59 57 54 49 41 36 30 21
31 27 25 37 37 37 42 45 48 44 53 54 30 38 36 33 33 32 28 22 26 28 34 40 50 58 65 71 51 43 50 56 58 54 54 59 59 56 49 42 35 29 21 18
39 34 24 28 30 27 34 42 44 58 68 54 41 37 32 30 27 23 29 40 36 36 40 48 60 64 50 47 49 52 53 56 67 59 61 61 59 50 44 36 30 25 19 18
38 35 28 30 30 33 39 39 39 42 49 53 40 34 31 29 26 32 39 43 44 48 50 59 64 42 36 47 53 60 63 68 75 64 65 62 53 49 38 27 21 19 19 17
40 38 31 34 35 36 38 37 43 40 46 56 41 35 28 25 26 34 43 39 41 49 51 50 39 43 49 54 55 60 60 59 66 68 64 58 50 35 26 22 22 20 15 7
32 32 28 28 30 32 40 39 37 34 33 57 66 40 30 33 39 44 49 53 49 45 41 36 37 44 52 58 62 64 63 66 71 69 61 49 65 82 54 23 20 12 5 5
27 30 29 26 26 28 32 31 32 37 38 42 50 47 34 33 35 51 48 33 38 40 42 42 43 49 54 62 69 70 71 74 74 68 56 78 55 32 25 20 9 5 6 6
28 28 34 31 24 18 19 28 34 40 40 38 51 42 38 48 52 52 40 36 36 36 32 30 48 58 64 74 82 79 86 89 77 86 96 79 46 26 20 6 5 6 6 6
40 32 31 33 28 28 26 26 35 36 43 38 37 35 33 32 35 33 30 42 44 41 36 45 54 61 71 81 92 95 97 95 88 96 74 38 29 20 7 6 7 7 7 7
38 39 43 36 35 37 36 34 36 42 52 62 26 34 26 18 21 32 48 50 50 48 48 46 50 68 80 93 98 97 95 97 97 92 50 31 21 7 6 7 8 8 9 10
38 40 38 38 37 38 39 46 47 41 32 42 27 28 32 34 55 47 51 47 47 47 50 57 57 72 96 99 99 96 94 97 96 57 34 24 7 6 8 8 9 11 13 16
58 50 41 46 45 50 60 47 32 26 38 43 54 28 61 53 45 52 55 58 60 58 55 68 72 95 99 99 98 96 94 96 68 37 27 9 6 8 9 10 13 16 18 21
58 58 77 81 83 91 61 51 31 42 47 56 61 60 52 49 60 63 58 58 58 53 60 69 88 100 100 100 95 78 92 75 40 30 12 6 8 10 12 14 18 21 24 26
68 64 65 69 73 64 61 34 56 63 62 54 55 54 55 54 60 63 60 47 50 58 58 66 97 100 98 82 82 95 72 41 32 17 5 8 10 12 15 18 22 24 25 27
54 59 68 73 79 74 32 51 62 57 64 44 49 66 74 70 63 49 45 48 54 55 66 81 75 89 83 85 88 66 43 33 24 6 7 10 12 15 19 21 22 23 21 13
43 69 82 90 84 66 36 46 61 77 53 72 78 78 72 63 55 47 49 54 59 67 65 60 60 77 93 88 69 44 34 29 11 6 9 12 14 18 20 20 20 14 11 11
51 58 70 98 97 87 54 59 64 56 59 67 81 67 80 68 56 50 50 51 61 66 74 71 63 64 73 70 45 36 30 20 6 8 11 14 17 18 18 17 12 12 14 15
85 81 88 86 70 82 71 66 83 82 71 67 70 73 68 71 67 53 48 44 69 75 79 72 70 68 64 44 37 29 27 7 7 10 13 15 16 16 14 12 15 16 16 16
70 76 97 98 97 96 90 84 87 92 77 74 73 70 69 63 62 57 52 48 49 65 68 72 72 63 42 37 30 30 17 6 8 12 14 14 14 13 13 17 17 17 17 17
86 93 89 64 56 74 83 86 83 78 78 69 74 68 60 57 65 64 58 52 48 43 43 50 51 41 37 31 30 27 7 6 9 13 12 11 12 13 18 18 18 19 19 19
68 58 44 53 58 75 64 65 69 66 64 63 70 72 75 66 66 70 63 58 51 45 41 36 36 34 30 28 30 18 5 7 9 13 10 10 12 17 20 19 20 22 23 23

GFSCGP_700_rhum_174.txt.gz
RH
28 21 22 15 14 14 18 27 32 16 25 41 36 41 39 34 28 27 28 29 28 27 28 28 27 30 32 34 36 39 41 44 44 39 36 36 35 34 35 36 37 38 39 40
38 32 28 23 18 16 26 36 36 35 32 38 39 38 40 41 39 34 33 35 36 36 35 34 33 32 34 38 42 48 52 53 49 45 43 39 37 36 36 38 41 44 45 45
40 34 28 22 20 20 18 29 33 37 38 40 45 40 35 34 33 31 38 39 37 36 37 38 39 38 38 42 49 55 59 64 64 58 53 46 43 48 48 43 46 49 50 49
46 40 34 29 24 20 23 23 31 37 45 44 43 45 38 34 32 34 34 35 31 30 31 33 31 30 38 50 54 60 63 68 63 63 59 60 56 41 41 45 50 53 53 48
42 40 35 32 28 28 29 36 38 43 43 43 44 42 38 34 34 30 33 29 30 26 27 31 38 41 48 57 63 63 65 46 42 50 50 49 49 48 50 52 55 54 48 37
26 28 30 33 35 40 41 47 47 47 47 57 44 41 35 30 34 30 30 34 30 24 26 28 33 43 51 61 64 61 51 40 46 56 60 62 55 52 55 58 56 49 37 31
39 36 34 33 35 38 44 45 52 51 61 57 32 42 34 32 30 28 30 26 20 30 32 38 48 54 58 61 56 48 56 56 56 57 61 67 58 58 60 59 48 42 36 32
55 44 30 31 32 30 30 39 49 60 61 51 45 40 30 30 31 30 25 22 28 29 30 41 53 60 61 49 53 61 63 57 58 56 57 68 64 64 62 51 46 37 25 20
45 39 33 34 36 39 44 45 38 43 50 55 43 38 35 32 28 29 27 33 34 32 30 28 35 57 43 42 53 57 54 57 61 61 64 67 67 62 54 44 30 29 24 20
52 46 34 31 33 38 41 42 45 49 51 58 43 39 31 24 22 24 33 37 34 41 44 45 48 35 42 50 48 55 60 64 67 67 69 70 66 57 43 60 66 52 20 10
54 55 49 34 30 30 38 42 42 41 43 52 67 40 28 32 31 35 34 44 49 46 40 41 38 39 47 50 56 63 68 72 73 73 74 73 63 64 72 56 26 20 7 5
40 35 32 30 29 30 30 34 41 45 66 58 56 50 35 32 33 33 48 59 44 37 33 37 44 44 52 62 64 65 72 78 82 81 89 77 68 78 69 38 21 6 6 6
58 45 39 31 28 25 24 26 29 34 39 37 52 47 39 45 42 44 58 50 38 34 39 44 42 37 46 62 69 75 80 91 95 95 92 83 96 81 31 22 6 6 7 7
63 72 80 51 38 37 34 39 44 46 43 40 37 32 25 24 26 25 26 30 27 29 41 44 44 42 49 58 72 84 92 98 98 95 93 97 70 34 23 7 6 7 7 8
57 64 72 75 66 41 39 37 39 41 38 46 22 23 18 20 24 26 34 31 42 53 52 52 50 49 49 58 80 94 99 96 97 87 98 92 39 25 10 6 7 8 9 12
53 63 73 74 58 47 42 40 40 41 35 36 24 27 17 27 46 50 48 58 55 52 53 55 60 60 60 72 89 93 98 96 91 94 96 46 29 14 6 7 8 10 13 17
54 59 53 61 60 60 59 50 38 28 32 36 38 26 39 49 59 55 56 52 56 55 59 62 64 72 74 86 98 98 92 97 95 98 63 35 18 6 7 8 10 14 18 21
66 68 70 74 80 94 63 56 50 46 31 26 37 43 52 58 52 46 52 70 65 57 55 56 62 64 81 93 97 99 98 93 98 74 39 25 6 7 9 10 14 18 22 25
86 88 85 90 91 70 61 49 42 44 43 51 56 51 52 56 56 60 67 61 49 43 47 54 59 65 95 98 98 98 94 91 75 43 32 11 6 9 11 14 18 22 25 26
67 71 82 97 89 74 46 35 44 66 63 48 43 56 75 77 70 62 58 49 47 49 55 58 70 87 100 100 99 90 89 74 45 34 18 6 8 11 14 18 22 23 24 14
60 55 69 76 96 83 58 51 45 56 54 59 60 70 78 70 75 63 58 52 53 56 68 70 65 64 76 86 90 91 76 47 36 28 8 7 10 14 17 20 22 22 14 11
66 58 59 73 97 89 56 64 68 62 61 70 70 81 84 77 76 68 59 53 51 63 72 73 76 69 65 75 82 76 51 37 30 15 6 9 12 16 19 20 20 14 12 14
68 54 61 72 78 74 76 76 87 76 67 74 76 84 84 85 80 64 62 54 50 56 72 76 78 72 66 70 70 54 38 32 27 7 8 11 14 17 19 18 14 12 16 16
79 73 79 83 84 88 92 87 89 98 87 80 86 84 88 87 87 64 60 58 56 49 49 58 56 74 74 69 52 41 34 28 18 6 9 13 16 17 17 15 13 16 17 17
87 87 77 78 68 40 78 94 96 88 93 88 82 76 72 84 81 61 62 64 62 53 48 43 41 57 64 50 42 37 31 29 8 6 9 14 15 15 14 13 17 19 19 19
38 43 56 58 34 36 39 52 80 84 69 65 65 62 65 82 95 76 62 68 67 60 51 45 42 39 43 41 39 32 32 24 6 7 9 13 14 13 14 16 20 20 20 22